Location: ????????
(41.2031°N, 22.5756°E)
Time: 06:14:30
(UTC+00:00)

Cosmos 1782 - Pass Details

Date: 01 December 2020
Orbit: 537 x 550 km, 82.5° (Epoch: 20 January)

Event Time Altitude Azimuth Distance (km) Brightness Sun altitude
Rises 16:17:55 0° 190° (S) 2,681 6.7 -14.1°
Reaches altitude 10° 16:20:04 10° 192° (SSW) 1,796 5.8 -14.4°
Maximum altitude 16:24:01 74° 278° (W) 568 3.0 -15.2°
Drops below altitude 10° 16:28:00 10° 4° (N) 1,819 5.3 -15.9°
Enters shadow 16:29:44 - 6° (N) 2,532 6.0 -16.2°
